Погода в Любеке

Германия     53°52′28″N   10°41′41″E
темп.,
°C
ветер,
м/с
пор.,
м/с
влажн.,
%
обл.,
%
осадки,
мм/ч
давл.,
гПа
погр.,
м
15 апреля, чт
чт1523:000св22845 0.0 103010
02:00−1с22835 0.0 103012
05:00−1ссз2284100 0.0 103023
08:00+2ссз3674100 0.0 1031174
11:00+7ссв4557100 0.0 1031998
14:00+9ссв554785 0.0 10302008
17:00+7ссв5652100 0.0 10301414
20:00+4с367870 0.0 1030112
16 апреля, пт
пт1623:00+2с3784100 0.0 1030141
02:00+2с378290 0.0 1029155
05:00+1с33939 0.0 102849
08:00+3с358145 0.0 1028167
11:00+7св68578 0.0 1028902
14:00+8св785378 0.0 10281135
17:00+8св5855100 0.0 1027957
20:00+4с347618 0.0 102781
17 апреля, сб
сб1723:00+1с36817 0.0 102796
02:00+1ссз348321 0.0 102649
05:00+1ссз349185 0.0 102674
08:00+4св2384100 0.0 1025171
11:00+6ссв3577100 0.0 1025549
14:00+6ссв468799 0.0 1025495
17:00+7ссв5684100 0.0 1024632
20:00+6ссв4791100 0.0 1024282
18 апреля, вс
вс1823:00+5ссв3794100 0.0 1025239
02:00+5ссв3895100 0.0 1024287
05:00+5ссв3896100 0.0 1024342
08:00+6с3595100 0.0 1023249
11:00+8ссв3486100 0.0 1023437
14:00+11ссв337674 0.0 1022807
17:00+11ссв567679 0.1 1022723
20:00+7св369579 0.1 1022165
19 апреля, пн
пн1923:00+6с229589 0.0 102228
02:00+7сз2493100 0.1 1021129
05:00+6сз2592100 0.3 1020146
08:00+7ссз1390100 0.3 1020155
11:00+9ссв1284100 0.0 1020230
14:00+9ссз228395 0.1 1019304
17:00+10ссз337762 0.1 1018512
20:00+8с238992 0.1 101874